Location: Chimay
(50.0486°N, 4.3171°E)
Time: 07:38:10
(UTC+00:00)

Terra - Pass Details

Date: 08 August 2020
Orbit: 701 x 703 km, 98.2° (Epoch: 26 September)

Event Time Altitude Azimuth Distance (km) Brightness Sun altitude
Exits shadow 20:20:57 12° 112° (ESE) 2,054 3.6 -9.9°
Maximum altitude 20:24:24 25° 61° (ENE) 1,422 3.2 -10.4°
Drops below altitude 10° 20:28:14 10° 8° (N) 2,185 4.8 -10.8°
Sets 20:30:50 0° 355° (N) 3,108 5.9 -11.2°
